星链-30307 (STARLINK-30307 )

导读

STARLINK-30307是美国SpaceX星链(Starlink)星座的卫星,于2023年9月1日发射升空,属于星链低轨互联网星座组网卫星。星链旨在为全球提供高速低延迟宽带互联网服务,该卫星入轨后,将和其他星链卫星协同,进一步拓展星座覆盖范围,推动全球无缝网络覆盖的构建。

Basic Information
目录编号:
57747
目录名称:
STARLINK-30307
国际标识:
2023-131R
轨道中心:
EARTH
卫星名称:
星链-30307
卫星全名:
星链-30307 (STARLINK-30307 )
卫星状态:
在轨 (已飞行1021 天)
发射日期:
2023-09-01 UTC
国别 :
美国 (US)
星等 :
--
Orbit Information
数据来源 国际轨道数据 AOE轨道数据
星历时间 2026-06-17T11:17:20+0800
1天前
查看轨道信息
2026-06-17T01:00:00+0800
1天前
查看轨道信息
半长轴 6861.212km 6861.201km
偏心率 0.0001156 0.0001643
轨道倾角 43.002° 43.003°
近地点辐角 265.173° 252.097°
升交点赤经 330.995° 333.418°
平近点角 94.899° 267.644°
近地点 482.281km 481.936km
远地点 483.869km 484.192km
周期 94.267分钟 94.267分钟
每日圈数 15.275715 15.275753
Detailed Information
固有亮度:
5
最大亮度:
0.3
卫星平台:
Starlink v2.0 mini
覆盖范围:
全球
运营商:
太空探索技术公司
运营商所在国:
美国
制造商(研发单位):
太空探索技术公司
制造商所在国:
美国
使用方式:
暂无
Satellite Introduction
星链(Starlink)计划是由太空探索技术公司(SpaceX)提出的一个巨型低轨卫星互联网星座项目,计划在2019年至2024年间在太空搭建由约1.2万颗卫星组成的“星链”网络,其中1584颗将部署在地球上空550千米处的近地轨道,并从2020年开始工作。该卫星仍在工作。
2D Orbit Map
3D Orbit Map
Orbit Altitude Analysis Chart
Orbit Inclination Analysis Chart
Orbit Comprehensive Analysis Chart
View Comprehensive Chart